Location: Cerezo de Arriba
(41.2389°N, 3.5585°W)
Time: 00:55:27
(UTC+00:00)

ERS-1 Rocket - Pass Details

Date: 19 May 2025
Orbit: 747 x 753 km, 98.2° (Epoch: 24 June)

Event Time Altitude Azimuth Distance (km) Brightness Sun altitude
Exits shadow 21:44:48 15° 206° (SSW) 1,919 4.8 -20.1°
Maximum altitude 21:48:16 34° 263° (W) 1,236 4.3 -20.4°
Drops below altitude 10° 21:52:49 10° 328° (NNW) 2,284 6.6 -20.9°
Sets 21:55:20 0° 338° (NNW) 3,213 7.7 -21.2°
